Location: Chillicothe
(39.7950°N, 93.5520°W)
Time: 18:42:18
(UTC-06:00)

Explorer 11/Cluster Stage 4 - Pass Details

Date: 21 October 2019
Orbit: 467 x 1259 km, 28.8° (Epoch: 11 November)

Event Time Altitude Azimuth Distance (km) Brightness Sun altitude
Rises 12:05:29 0° 244° (WSW) 2,500 9.3 37.9°
Reaches altitude 10° 12:08:12 10° 222° (SW) 1,670 8.8 38.1°
Maximum altitude 12:10:37 16° 181° (S) 1,383 9.2 38.2°
Drops below altitude 10° 12:13:14 10° 142° (SE) 1,823 9.5 38.3°
Sets 12:16:23 0° 121° (ESE) 2,858 10.0 38.5°
